• In Deutschland
  • Länderverzeichnis
  • Für 7 Tage
  • Wassertemperatur
  • Satellitenkarten
  • Wetterkarte
  • Widgets
  • user-avatar
    Anmelden

    Stündliche Wetter Ndjbele

    Heute, 15 Juli, Sonntag

    Zeit Temperatur Niederschläge Wind Luftdruck Luftfeuchtigkeit
    00:00 +23°C° 0,1 mm 1 m/S 718 mmHg 97%
    01:00 +23°C° 0,1 mm 1 m/S 717 mmHg 97%
    02:00 +23°C° 0,1 mm 1 m/S 717 mmHg 98%
    03:00 +23°C° 0 mm 1 m/S 717 mmHg 98%
    04:00 +23°C° 0 mm 1 m/S 717 mmHg 98%
    05:00 +22°C° 0 mm 1 m/S 717 mmHg 98%
    06:00 +23°C° 0 mm 1 m/S 717 mmHg 96%
    07:00 +23°C° 0 mm 1 m/S 717 mmHg 95%
    08:00 +24°C° 0 mm 1 m/S 717 mmHg 93%
    09:00 +25°C° 0 mm 1 m/S 717 mmHg 86%
    10:00 +27°C° 0 mm 1 m/S 717 mmHg 79%
    11:00 +28°C° 0 mm 1 m/S 717 mmHg 73%
    12:00 +28°C° 0 mm 1 m/S 717 mmHg 71%
    13:00 +29°C° 0 mm 1 m/S 717 mmHg 69%
    14:00 +30°C° 0 mm 1 m/S 716 mmHg 66%
    15:00 +29°C° 0,4 mm 1 m/S 716 mmHg 74%
    16:00 +28°C° 0,4 mm 1 m/S 716 mmHg 81%
    17:00 +27°C° 0,4 mm 2 m/S 716 mmHg 88%
    18:00 +25°C° 0,3 mm 1 m/S 717 mmHg 92%
    19:00 +24°C° 0,3 mm 1 m/S 717 mmHg 95%
    20:00 +23°C° 0,3 mm 1 m/S 718 mmHg 98%
    21:00 +23°C° 0,1 mm 1 m/S 718 mmHg 98%
    22:00 +23°C° 0,1 mm 1 m/S 718 mmHg 98%
    23:00 +23°C° 0,1 mm 1 m/S 718 mmHg 98%

    Morgen, 16 Juli, Montag

    Zeit Temperatur Niederschläge Wind Luftdruck Luftfeuchtigkeit
    00:00 +23°C° 0,1 mm 1 m/S 718 mmHg 98%
    01:00 +23°C° 0,1 mm 1 m/S 717 mmHg 98%
    02:00 +23°C° 0,1 mm 1 m/S 717 mmHg 98%
    03:00 +23°C° 0,1 mm 1 m/S 717 mmHg 98%
    04:00 +23°C° 0,1 mm 1 m/S 717 mmHg 98%
    05:00 +22°C° 0,1 mm 1 m/S 717 mmHg 98%
    06:00 +23°C° 0 mm 1 m/S 717 mmHg 96%
    07:00 +24°C° 0 mm 1 m/S 718 mmHg 93%
    08:00 +25°C° 0 mm 1 m/S 718 mmHg 91%
    09:00 +26°C° 0,2 mm 1 m/S 718 mmHg 85%
    10:00 +27°C° 0,2 mm 1 m/S 718 mmHg 80%
    11:00 +28°C° 0,2 mm 2 m/S 718 mmHg 74%
    12:00 +28°C° 0,6 mm 2 m/S 718 mmHg 77%
    13:00 +28°C° 0,6 mm 2 m/S 717 mmHg 80%
    14:00 +28°C° 0,6 mm 2 m/S 717 mmHg 83%
    15:00 +27°C° 0,6 mm 2 m/S 717 mmHg 87%
    16:00 +26°C° 0,6 mm 2 m/S 717 mmHg 90%
    17:00 +25°C° 0,6 mm 1 m/S 716 mmHg 94%
    18:00 +24°C° 0,3 mm 1 m/S 717 mmHg 95%
    19:00 +23°C° 0,3 mm 1 m/S 718 mmHg 97%
    20:00 +22°C° 0,3 mm 1 m/S 718 mmHg 98%
    21:00 +22°C° 0,1 mm 1 m/S 718 mmHg 98%
    22:00 +22°C° 0,1 mm 1 m/S 719 mmHg 98%
    23:00 +22°C° 0,1 mm 1 m/S 719 mmHg 98%

    übermorgen, 17 Juli, Dienstag

    Zeit Temperatur Niederschläge Wind Luftdruck Luftfeuchtigkeit
    00:00 +22°C° 0,2 mm 1 m/S 718 mmHg 98%
    01:00 +22°C° 0,2 mm 1 m/S 718 mmHg 98%
    02:00 +22°C° 0,2 mm 1 m/S 717 mmHg 99%
    03:00 +22°C° 0,1 mm 1 m/S 717 mmHg 99%
    04:00 +22°C° 0,1 mm 1 m/S 717 mmHg 99%
    05:00 +22°C° 0,1 mm 1 m/S 717 mmHg 99%
    06:00 +22°C° 0,1 mm 1 m/S 718 mmHg 98%
    07:00 +23°C° 0,1 mm 1 m/S 718 mmHg 97%
    08:00 +23°C° 0,1 mm 1 m/S 718 mmHg 97%
    09:00 +24°C° 0,2 mm 1 m/S 718 mmHg 91%
    10:00 +25°C° 0,2 mm 1 m/S 719 mmHg 85%
    11:00 +27°C° 0,2 mm 1 m/S 719 mmHg 80%
    12:00 +27°C° 0,9 mm 1 m/S 718 mmHg 82%
    13:00 +27°C° 0,9 mm 1 m/S 717 mmHg 84%
    14:00 +27°C° 0,9 mm 2 m/S 716 mmHg 86%
    15:00 +26°C° 1,3 mm 2 m/S 716 mmHg 89%
    16:00 +26°C° 1,3 mm 1 m/S 716 mmHg 92%
    17:00 +25°C° 1,3 mm 1 m/S 716 mmHg 95%
    18:00 +24°C° 1,1 mm 1 m/S 717 mmHg 96%
    19:00 +23°C° 1,1 mm 1 m/S 717 mmHg 97%
    20:00 +22°C° 1,1 mm 1 m/S 718 mmHg 98%
    21:00 +22°C° 0,6 mm 1 m/S 718 mmHg 98%
    22:00 +22°C° 0,6 mm 1 m/S 719 mmHg 99%
    23:00 +22°C° 0,6 mm 1 m/S 719 mmHg 99%

    18 Juli, Mittwoch

    Zeit Temperatur Niederschläge Wind Luftdruck Luftfeuchtigkeit
    00:00 +22°C° 0,4 mm 1 m/S 718 mmHg 99%
    01:00 +22°C° 0,4 mm 1 m/S 718 mmHg 99%
    02:00 +22°C° 0,4 mm 1 m/S 717 mmHg 99%
    03:00 +22°C° 0,2 mm 1 m/S 717 mmHg 99%
    04:00 +20°C° 0,2 mm 0 m/S 717 mmHg 99%
    05:00 +20°C° 0,2 mm 0 m/S 717 mmHg 99%
    06:00 +23°C° 0 mm 1 m/S 718 mmHg 97%
    07:00 +23°C° 0 mm 1 m/S 718 mmHg 96%
    08:00 +24°C° 0 mm 1 m/S 719 mmHg 94%
    09:00 +25°C° 0,3 mm 1 m/S 719 mmHg 88%
    10:00 +27°C° 0,3 mm 1 m/S 719 mmHg 83%
    11:00 +28°C° 0,3 mm 1 m/S 719 mmHg 77%
    12:00 +28°C° 1,2 mm 1 m/S 718 mmHg 80%
    13:00 +27°C° 1,2 mm 1 m/S 717 mmHg 83%
    14:00 +27°C° 1,2 mm 1 m/S 717 mmHg 86%
    15:00 +26°C° 2,1 mm 1 m/S 716 mmHg 90%
    16:00 +25°C° 2,1 mm 1 m/S 716 mmHg 93%
    17:00 +25°C° 2,1 mm 1 m/S 716 mmHg 96%
    18:00 +24°C° 0,9 mm 1 m/S 717 mmHg 97%
    19:00 +23°C° 0,9 mm 1 m/S 717 mmHg 97%
    20:00 +23°C° 0,9 mm 1 m/S 718 mmHg 98%
    21:00 +22°C° 0,7 mm 1 m/S 718 mmHg 98%
    22:00 +22°C° 0,7 mm 1 m/S 718 mmHg 99%
    23:00 +22°C° 0,7 mm 1 m/S 718 mmHg 99%

    19 Juli, Donnerstag

    Zeit Temperatur Niederschläge Wind Luftdruck Luftfeuchtigkeit
    00:00 +22°C° 0,3 mm 1 m/S 718 mmHg 99%
    01:00 +22°C° 0,3 mm 1 m/S 717 mmHg 99%
    02:00 +22°C° 0,3 mm 1 m/S 717 mmHg 99%
    03:00 +22°C° 0,1 mm 1 m/S 717 mmHg 99%
    04:00 +20°C° 0,1 mm 0 m/S 717 mmHg 99%
    05:00 +20°C° 0,1 mm 0 m/S 717 mmHg 99%
    06:00 +21°C° 0,1 mm 0 m/S 718 mmHg 97%
    07:00 +22°C° 0,1 mm 0 m/S 718 mmHg 96%
    08:00 +24°C° 0,1 mm 1 m/S 719 mmHg 94%
    09:00 +26°C° 0 mm 1 m/S 719 mmHg 87%
    10:00 +27°C° 0 mm 1 m/S 719 mmHg 79%
    11:00 +28°C° 0 mm 1 m/S 719 mmHg 72%
    12:00 +28°C° 0,5 mm 1 m/S 718 mmHg 76%
    13:00 +28°C° 0,5 mm 1 m/S 717 mmHg 79%
    14:00 +28°C° 0,5 mm 1 m/S 716 mmHg 83%
    15:00 +27°C° 0,6 mm 1 m/S 716 mmHg 87%
    16:00 +26°C° 0,6 mm 1 m/S 716 mmHg 92%
    17:00 +25°C° 0,6 mm 1 m/S 716 mmHg 96%
    18:00 +24°C° 0,4 mm 1 m/S 717 mmHg 97%
    19:00 +24°C° 0,4 mm 1 m/S 717 mmHg 98%
    20:00 +23°C° 0,4 mm 1 m/S 718 mmHg 99%
    21:00 +23°C° 0,2 mm 1 m/S 718 mmHg 99%
    22:00 +23°C° 0,2 mm 1 m/S 718 mmHg 99%
    23:00 +23°C° 0,2 mm 1 m/S 718 mmHg 99%

    20 Juli, Freitag

    Zeit Temperatur Niederschläge Wind Luftdruck Luftfeuchtigkeit
    00:00 +22°C° 0,2 mm 1 m/S 717 mmHg 99%
    01:00 +22°C° 0,2 mm 1 m/S 717 mmHg 99%
    02:00 +22°C° 0,2 mm 1 m/S 716 mmHg 99%
    03:00 +20°C° 0 mm 0 m/S 717 mmHg 99%
    04:00 +20°C° 0 mm 0 m/S 717 mmHg 99%
    05:00 +20°C° 0 mm 0 m/S 717 mmHg 99%
    06:00 +21°C° 0 mm 0 m/S 717 mmHg 97%
    07:00 +21°C° 0 mm 0 m/S 718 mmHg 95%
    08:00 +24°C° 0 mm 1 m/S 718 mmHg 94%
    09:00 +26°C° 0 mm 1 m/S 718 mmHg 86%
    10:00 +27°C° 0 mm 1 m/S 718 mmHg 79%
    11:00 +28°C° 0 mm 1 m/S 718 mmHg 71%
    12:00 +29°C° 0,1 mm 1 m/S 717 mmHg 70%
    13:00 +29°C° 0,1 mm 1 m/S 716 mmHg 69%
    14:00 +30°C° 0,1 mm 2 m/S 716 mmHg 67%
    15:00 +28°C° 0,8 mm 2 m/S 716 mmHg 76%
    16:00 +27°C° 0,8 mm 2 m/S 716 mmHg 84%
    17:00 +26°C° 0,8 mm 1 m/S 716 mmHg 92%
    18:00 +25°C° 0,8 mm 2 m/S 717 mmHg 94%
    19:00 +24°C° 0,8 mm 2 m/S 717 mmHg 96%
    20:00 +23°C° 0,8 mm 2 m/S 718 mmHg 98%
    21:00 +23°C° 0,4 mm 2 m/S 718 mmHg 98%
    22:00 +23°C° 0,4 mm 1 m/S 718 mmHg 98%
    23:00 +23°C° 0,4 mm 1 m/S 718 mmHg 98%
    Mehr zeigen